Weather History for Milwaukee, WI

Change the Weather History Date:

Wednesday, August 14, 2013

  Actual Average Record
Temperature  
Mean Temperature 61 °F 71 °F  
Max Temperature 68 °F 79 °F 96 °F (1944)
Min Temperature 53 °F 64 °F 47 °F (1962)
Degree Days  
Heating Degree Days 4 0  
Month to date heating degree days 8 0  
Since 1 June heating degree days 109 95  
Since 1 July heating degree days 22 11  
Cooling Degree Days 0 7  
Month to date cooling degree days 53 98  
Year to date cooling degree days 432 470  
Since 1 June cooling degree days 393 440  
Growing Degree Days 10 (Base 50)    
Moisture  
Dew Point 49 °F    
Average Humidity 66    
Maximum Humidity 83    
Minimum Humidity 48    
Precipitation  
Precipitation 0.00 in 0.14 in 0.84 in (1981)
Month to date precipitation 1.60 1.85  
Year to date precipitation 28.46 22.06  
Snow  
Snow 0.00 in 0.00 in 0.00 in ()
Month to date snowfall 0.0 0.0  
Since 1 June snowfall 0.0 0.0  
Since 1 July snowfall 0.0 0.0  
Snow Depth 0.00 in    
Sea Level Pressure  
Sea Level Pressure 30.19 in    
Wind  
Wind Speed 8 mph (NE)    
Max Wind Speed 14 mph    
Max Gust Speed 21 mph    
Visibility 10 miles    
Events      
T = Trace of Precipitation, MM = Missing Value Source: NWS Daily Summary

Daily Weather History Graph

Daily Weather History Graph

Search for Another Location

Airport:

Trip Planner

Search our weather history database for the weather conditions in past years. The results will help you decide how hot, cold, wet, or windy it might be!

Date:

Astronomy

Aug. 14, 2013 Rise Set
Actual Time 5:56 AM CDT 7:54 PM CDT
Civil Twilight 5:26 AM CDT 8:25 PM CDT
Nautical Twilight 4:48 AM CDT 9:02 PM CDT
Astronomical Twilight 4:07 AM CDT 9:43 PM CDT
Moon 2:08 PM CDT (8/14) No Moon Set
Length of Visible Light 14h 59m
Length of Day
13h 58m
First Quarter, 53% of the Moon is Illuminated
Aug 14
First Quarter
Aug 20
Full
Aug 28
Last Quarter
Sep 5
New
Sep 12
First Quarter

Hourly Weather History & Observations

Time (CDT) Temp. Dew Point Humidity Pressure Visibility Wind Dir Wind Speed Gust Speed Precip Events Conditions
12:52 AM 61.0 °F 48.9 °F 64% 30.17 in 10.0 mi North 4.6 mph - N/A   Scattered Clouds
1:52 AM 57.0 °F 51.1 °F 81% 30.18 in 10.0 mi NW 5.8 mph - N/A   Scattered Clouds
2:52 AM 55.9 °F 50.0 °F 80% 30.18 in 10.0 mi NW 6.9 mph - N/A   Partly Cloudy
3:52 AM 55.0 °F 48.9 °F 80% 30.19 in 10.0 mi NW 5.8 mph - N/A   Partly Cloudy
4:52 AM 54.0 °F 48.0 °F 80% 30.20 in 10.0 mi NW 5.8 mph - N/A   Partly Cloudy
5:52 AM 53.1 °F 46.0 °F 77% 30.21 in 10.0 mi NW 5.8 mph - N/A   Partly Cloudy
6:52 AM 54.0 °F 45.0 °F 72% 30.22 in 10.0 mi NW 5.8 mph - N/A   Partly Cloudy
7:52 AM 59.0 °F 45.0 °F 60% 30.23 in 10.0 mi NW 4.6 mph - N/A   Partly Cloudy
8:52 AM 63.0 °F 45.0 °F 52% 30.22 in 10.0 mi NNE 5.8 mph - N/A   Partly Cloudy
9:52 AM 64.9 °F 48.0 °F 54% 30.23 in 10.0 mi NE 11.5 mph - N/A   Partly Cloudy
10:52 AM 66.0 °F 46.9 °F 50% 30.23 in 10.0 mi NNE 8.1 mph - N/A   Partly Cloudy
11:52 AM 66.0 °F 46.9 °F 50% 30.22 in 10.0 mi NE 12.7 mph - N/A   Scattered Clouds
12:52 PM 66.9 °F 46.9 °F 49% 30.21 in 10.0 mi ENE 9.2 mph - N/A   Scattered Clouds
1:52 PM 66.9 °F 46.9 °F 49% 30.20 in 10.0 mi East 6.9 mph 16.1 mph N/A   Scattered Clouds
2:52 PM 66.9 °F 48.0 °F 51% 30.19 in 10.0 mi East 9.2 mph - N/A   Scattered Clouds
3:52 PM 66.9 °F 48.9 °F 52% 30.18 in 10.0 mi ESE 10.4 mph - N/A   Partly Cloudy
4:52 PM 66.0 °F 50.0 °F 56% 30.18 in 10.0 mi SE 10.4 mph - N/A   Scattered Clouds
5:52 PM 66.0 °F 50.0 °F 56% 30.16 in 10.0 mi SE 11.5 mph - N/A   Scattered Clouds
6:52 PM 64.9 °F 50.0 °F 58% 30.15 in 10.0 mi SSE 8.1 mph - N/A   Scattered Clouds
7:52 PM 62.1 °F 51.1 °F 67% 30.16 in 10.0 mi South 6.9 mph - N/A   Scattered Clouds
8:52 PM 61.0 °F 51.1 °F 70% 30.16 in 10.0 mi SSE 6.9 mph - N/A   Partly Cloudy
9:52 PM 61.0 °F 52.0 °F 72% 30.16 in 10.0 mi South 4.6 mph - N/A   Partly Cloudy
10:52 PM 60.1 °F 52.0 °F 75% 30.16 in 10.0 mi South 4.6 mph - N/A   Partly Cloudy
11:52 PM 60.1 °F 53.1 °F 78% 30.16 in 10.0 mi SSW 5.8 mph - N/A   Mostly Cloudy